Regional Weather Roundup
Issued by NWS Grand Forks, ND

Home | Current Version | Previous Version | Graphics & Text | Print | Product List | Glossary On
Versions: 1 2 3 4 5 6 7 8 9 10 11 12 13 14 15 16 17 18 19 20 21 22 23 24 25 26 27 28 29 30 31 32 33 34 35 36 37 38 39 40 41 42 43 44 45 46 47 48 49 50
000
ASUS43 KFGF 211331
RWRFGF
PRAIRIE TO PINES  WEATHER ROUNDUP
NATIONAL WEATHER SERVICE EASTERN NORTH DAKOTA/GRAND FORKS ND
700 AM CST SAT JAN 21 2017

 **SATELLITE DATA USED TO AUGMENT SKY COVER AT AUTOMATED STATIONS**
 *****  WEATHER ACROSS EASTERN NORTH DAKOTA  *****

CITY           SKY/WX    TMP DP  RH WIND       PRES   REMARKS
GRAND FORKS    CLOUDY    36  32  85 SE8       29.40R
GRAND FRKS AFB CLOUDY    32  32 100 SE8       29.40R WCI  25
DEVILS LAKE    FOG       33  33 100 SE7       29.36R VSB 1/2
FARGO          CLOUDY    38  35  89 SE8       29.39R
WAHPETON ARPT  CLOUDY    34  32  93 SE7       29.39R
$$

 ***** WEATHER ACROSS CENTRAL AND WESTERN NORTH DAKOTA  *****

CITY           SKY/WX    TMP DP  RH WIND       PRES   REMARKS
BISMARCK       CLOUDY    29  27  92 W6        29.34R WCI  23
MINOT          CLOUDY    28  26  92 CALM      29.31R FOG
JAMESTOWN      FOG       32  32 100 S7        29.33R VSB 1/4
MINOT AFB      MOCLDY    27  25  93 CALM      29.31R FOG
GARRISON         N/A     23  21  92 W5        29.31R WCI  17
WILLISTON      CLOUDY    27  24  89 S3        29.30S
DICKINSON      CLOUDY    29  26  89 W10       29.28R WCI  20
HETTINGER      CLOUDY    29  26  89 W8        29.31S WCI  21
$$

 *****  OTHER AIRPORT OBSERVATIONS IN OUR AREA  *****

CITY           SKY/WX    TMP DP  RH WIND       PRES   REMARKS
WALHALLA       NOT AVBL
GRAFTON AIRPOR CLOUDY    34  34 100 SE12      29.42R
VALLEY CITY AR FOG       32  32 100 SE8       29.37S VSB 1/4 WCI  25
CANDO          NOT AVBL
CAVALIER APRT  CLOUDY    32  32 100 SE5       29.41R FOG
GWINNER        CLOUDY    34  34 100 SE9       29.36R VSB 1/4
SHEYENNE NWR     N/A     33  33 100 SE8       29.95S
ROLLA            N/A    N/A N/A N/A MISG        N/A
 ***** THE ABOVE OBSERVATIONS ARE NON NWS ARE NOT QUALITY
       CONTROLLED AND MAY MIS-REPORT RAIN FOR SNOW...
$$

  *****  WEATHER ACROSS NORTHERN MINNESOTA  *****

CITY           SKY/WX    TMP DP  RH WIND       PRES   REMARKS
FLAG ISLAND    CLOUDY    34  32  93 SE7       29.47S FOG
WARROAD        DRIZZLE   36  30  80 E5        29.46F
ROSEAU         CLOUDY    36  30  80 SE7       29.45R
HALLOCK        CLOUDY    36  34  93 E8        29.42R
THF RVR FALLS  CLOUDY    34  33  96 E12       29.43R
BAUDETTE       CLOUDY    33  33 100 SE9       29.47S FOG
WASKISH        CLOUDY    34  34 100 E7        29.47S
CROOKSTON      CLOUDY    36  34  93 SE9       29.42R
STEPHEN NDAWN    N/A     34  34 100 E9          N/A
GREENBUSH NDAW   N/A     34  34 100 SE7         N/A
$$
  *****  WEATHER ACROSS CENTRAL AND WEST MINNESOTA  *****

CITY           SKY/WX    TMP DP  RH WIND       PRES   REMARKS
FOSSTON        CLOUDY    34  32  93 SE12      29.43S
BEMIDJI        CLOUDY    32  32 100 SE7       29.45S FOG
PARK RAPIDS    FOG       34  31  88 E8        29.43R VSB 1
ELBOW LAKE     CLOUDY    33  33  99 SE13      29.39S FOG     WCI  24
WADENA         DRZL/FOG  32  32 100 E7        29.42R VSB 3/4
DETROIT LAKES  CLOUDY    34  34 100 SE6       29.42S
MOORHEAD       CLOUDY    36  34  93 E7        29.40R
FERGUS FALLS   CLOUDY    36  36 100 E7        29.43R
MORRIS MN      CLOUDY    34  34 100 E9        29.38S FOG
STAPLES        FOG       32  32 100 CALM      29.43S VSB 1/2
$$
  *****  WEATHER ELSEWHERE ACROSS MINNESOTA  *****

CITY           SKY/WX    TMP DP  RH WIND       PRES   REMARKS
DULUTH         DRZL/FOG  34  34 100 E5        29.49F VSB 1/16
INTRNTL FALLS  CLOUDY    33  32  96 SE6       29.50S FOG
ELY            CLOUDY    34  34 100 CALM      29.51F
CLOQUET        FOG       34  34 100 E6        29.48F VSB 1/4
WHEATON        CLOUDY    41  41 100 SE9       29.40R FOG
BRAINERD       FOG       33  33 100 E6        29.45F VSB 1/2
HIBBING        FOG       32  32 100 SE7       29.49S VSB 1
ALEXANDRIA     CLOUDY    33  33 100 E10       29.40F FOG     WCI  25
SAINT CLOUD    FOG       33  33 100 E7        29.44R VSB 1/4
MINNEAPOLIS    CLOUDY    35  33  92 E7        29.43F FOG
$$

  *****  WEATHER ACROSS SOUTH DAKOTA  *****

CITY           SKY/WX    TMP DP  RH WIND       PRES   REMARKS
SIOUX FALLS    FOG       36  36 100 S5        29.34S VSB 1/4
BROOKINGS      LGT RAIN  34  34 100 SE6       29.33R VSB 3/4
WATERTOWN      CLOUDY    34  34 100 SE6       29.32S FOG
HURON          CLOUDY    26  26 100 NW7       29.35R WCI  18
SISSETON         N/A     33  33 100 SE7       29.36S
ABERDEEN       CLOUDY    28  26  92 W6        29.35R WCI  22
MITCHELL       CLOUDY    28  26  92 W12       29.37R WCI  18
PIERRE         CLOUDY    26  25  96 NW8       29.34R WCI  18
MOBRIDGE       LGT SNOW  28  24  85 NW8       29.31R FOG     WCI  20
RAPID CITY     FAIR      29  27  92 NW10      29.34S WCI  20
$$

  *****  SOME WEATHER IN NEARBY STATES *****

CITY           SKY/WX    TMP DP  RH WIND       PRES   REMARKS
GLASGOW MT     FOG       18  16  92 W12       29.35S VSB 1/4 WCI   5
GREAT FALLS MT FAIR      16  12  84 NW3       29.33R
CHEYENNE WY    FAIR      19  16  88 NW3       29.35R
SCOTTSBLUFF NE FAIR      21  17  84 CALM      29.38S
OMAHA NE       CLOUDY    40  37  89 SW5       29.40R FOG
DES MOINES IA  FOG       44  43  96 S7        29.40R VSB 1/4
DAVENPORT IA   FAIR      42  41  96 S10       29.43S FOG
CHICAGO IL     CLOUDY    48  47  96 S9        29.52F FOG
EAU CLAIRE WI  LGT RAIN  34  34 100 NE9       29.46F FOG
LA CROSSE WI   LGT RAIN  39  36  89 E5        29.44R FOG
$$

  *****  SOME NATIONAL WEATHER *****

CITY           SKY/WX    TMP DP  RH WIND       PRES   REMARKS
LA GUARDIA NY  MOCLDY    45  41  86 SW8       29.88S
RALEIGH NC     FOG       51  51 100 CALM      29.93R VSB 1/8
ATLANTA GA     TSTM      63  63 100 E7        29.81R VSB 1/4
NEW ORLEANS LA RAIN      60  58  92 NE13G22   29.75S FOG
OKLAHOMA CITY  FAIR      41  33  73 CALM      29.53R
ALBUQUERQUE NM CLOUDY    38  36  92 S20       29.45S
SALT LAKE CITY SNOW      33  32  96 N3        29.29R VSB 1/2
LOS ANGELES CA FAIR      50  41  71 N3        29.72R
BOISE ID       FLURRIES  33  32  96 SE10      29.36R WCI  25
SEATTLE WA     CLOUDY    43  41  93 CALM      29.26S
$$

*** WEATHER ACROSS MANITOBA...SASKATCHEWAN AND ONTARIO ***
                ***ONTARIO***

CITY           SKY/WX    TMP DP  RH WIND       PRES   REMARKS
GERALDTON      FRZ RAIN  32  32 100 E3        29.63S VSB 1
THUNDER BAY    DRIZZLE   34  34 100 NE6       29.60R FOG
SIOUX LOOKOUT  LGT RAIN  34  34 100 E3        29.55S FOG
TORONTO        CLOUDY    36  36 100 SW7       29.79R FOG
BIG TROUT LK   FLURRIES  27  27 100 E5        29.71  WCI  21
PICKLE LAKE    LGT RAIN  32  32 100 E6        29.59S FOG
DRYDEN         CLOUDY    34  34 100 E5        29.52S
KENORA         LGT SNOW  32  32 100 SE7       29.49R FOG
$$
                *** MANITOBA***

CITY           SKY/WX    TMP DP  RH WIND       PRES   REMARKS
BRANDON        CLOUDY    32  32 100 SE7       29.36R FOG
DAUPHIN        FOG       28  27  93 N2        29.37S VSB 3/8
ISLAND LAKE    LGT RAIN  32  32 100 E6        29.58R FOG
PILOT MOUND      N/A     32  32 100 SE10        N/A  WCI  24
THE PAS        LGT SNOW  32  30  93 E6        29.42S FOG
THOMPSON       LGT SNOW  27  27 100 E6        29.58R VSB 3/4 WCI  20
WINNIPEG       CLOUDY    36  34  93 SE9       29.44R
LYNN LAKE      CLOUDY    27  27 100 E7        29.54R FOG     WCI  19
CHURCHILL      FLURRIES  18  16  93 SE21      29.81S WCI   1
GILLAM         FLURRIES  28  27  93 SE6       29.69S WCI  22
$$
                ***SASKATCHEWAN***

CITY           SKY/WX    TMP DP  RH WIND       PRES   REMARKS
ESTEVAN        FOG       14  12  92 E3        29.30R VSB 1/8
KINDERSLEY     FOG       21  21 100 NW8       29.35S VSB 1/8 WCI  12
LLOYDMINSTER   FRZ RAIN  19  18  93 NW8       29.40S VSB 5/8 WCI   9
PRINCE ALBERT  FLURRIES  28  27  93 NE5       29.37R WCI  23
REGINA         CLOUDY    18  16  93 S3        29.29R FOG
YORKTON        LGT SNOW  28  27  93 SE7       29.31S VSB 1   WCI  21
N. BATTLEFORD  CLOUDY    28 N/A N/A N9        29.38S WCI  20
LA RONGE       LGT SNOW  27  27 100 NE7       29.45S FOG     WCI  19
SASKATOON      CLOUDY    28  27  93 NE9       29.34S WCI  20
SWIFT CURRENT  FRZ RAIN  25  25 100 W9        29.29F VSB 1/4 WCI  15
$$
NOTE: THESE ARE AUTOMATED STATIONS WITH LIMITED QUALITY CONTROL
      "FAIR" INDICATES FEW OR NO CLOUDS BELOW 12,000 FEET WITH NO
      SIGNIFICANT WEATHER AND/OR OBSTRUCTIONS TO VISIBILITY.
      SKY/WX - SKY CONDITION AND SIGNIFICANT WEATHER.
      TMP - AIR TEMPERATURE.    DP   - DEWPOINT TEMPERATURE.
      RH  - RELATIVE HUMIDITY.  PRES - PRESSURE.
      HX  - HEAT INDEX.         WCI  - WIND CHILL INDEX.
$




USA.gov is the U.S. government's official web portal to all federal, state and local government web resources and services.